Regional Weather Roundup
Issued by NWS

Home | Current Version | Previous Version | Graphics & Text | Print | Product List | Glossary On
Versions: 1 2 3 4 5 6 7 8 9 10 11 12 13 14 15 16 17 18 19 20 21 22 23 24 25 26 27
000
ASUS45 KPSR 252210
RWRAZ

ARIZONA HOURLY REGIONAL WEATHER ROUNDUP
NATIONAL WEATHER SERVICE PHOENIX AZ
300 PM MST MON JUL 25 2016

NOTE: FAIR INDICATES FEW OR NO CLOUDS BELOW 12,000 FEET WITH NO
SIGNIFICANT WEATHER AND/OR OBSTRUCTIONS TO VISIBILITY.

AZZ001>003-036-252300-
NORTHWEST ARIZONA

CITY           SKY/WX    TMP DP  RH WIND       PRES   REMARKS
BULLHEAD CITY  MOSUNNY  108  55  18 S6        29.78F HX 106
KINGMAN        SUNNY     99  50  19 SW14G30   30.01F
$$

AZZ004>008-015-016-018-252300-
NORTH CENTRAL ARIZONA

CITY           SKY/WX    TMP DP  RH WIND       PRES   REMARKS
GRAND CANYON   PTSUNNY   87  42  20 N8        30.25F
WILLIAMS       PTSUNNY   63  54  72 SE21G30   30.37F
PRESCOTT       CLOUDY    82  57  42 MISG      30.18R THUNDER
FLAGSTAFF      TSTM      59  56  89 CALM      30.37F
PAYSON         TSTM      66  61  82 W7        30.20S
PAGE           CLOUDY    99  45  15 VRB6      30.03F
$$

AZZ009>014-017-252300-
NORTHEAST ARIZONA

CITY           SKY/WX    TMP DP  RH WIND       PRES   REMARKS
WINSLOW        CLOUDY    93  47  20 W21G26    30.11F
SAINT JOHNS    CLOUDY    87  46  24 S18       30.18F
WINDOW ROCK    LGT RAIN  78  53  41 N15G24    30.28R
SHOW LOW       PTSUNNY   81  46  30 E17       30.26F
$$

AZZ023-252300-
GREATER PHOENIX AREA

CITY           SKY/WX    TMP DP  RH WIND       PRES   REMARKS
PHOENIX        MOSUNNY  105  58  21 W12       29.80F HX 105
BUCKEYE        MOSUNNY  104  57  21 S9        29.82F HX 103
GLENDALE       MOSUNNY  106  57  20 S12G17    29.82F HX 105
LUKE AFB       SUNNY    106  58  20 S15       29.79F HX 106
DEER VALLEY    SUNNY    102  58  23 VRB5      29.83F HX 102
SCOTTSDALE     SUNNY    102  56  21 S5        29.85F HX 101
MESA-FALCON    MOSUNNY  N/A N/A N/A W14       29.82F
MESA-GATEWAY   MOSUNNY  102  59  24 W9        29.85F HX 102
CHANDLER       MOSUNNY  104  57  21 SW10      29.82F HX 103
$$

AZZ027-028-252300-
SOUTHWEST MARICOPA COUNTY AND PINAL COUNTY

CITY           SKY/WX    TMP DP  RH WIND       PRES   REMARKS
CASA GRANDE    SUNNY    102  57  22 W10       29.87F HX 101
GILA BEND      MOSUNNY  106  54  18 VRB7      29.80F HX 104
$$

AZZ503-504-507>509-252300-
SOUTHEAST ARIZONA

CITY           SKY/WX    TMP DP  RH WIND       PRES   REMARKS
TUCSON         SUNNY     99  57  24 W6        29.95F
DAVIS-MONTHAN  SUNNY     98  59  27 N7G17     29.94F
RYAN FIELD     SUNNY     99  59  26 W8G17     29.94F
NOGALES        PTSUNNY   94  55  26 VRB7      30.03F
SIERRA VISTA   SUNNY     92  50  23 E13       30.12F
DOUGLAS        SUNNY     89  60  37 NW6       30.07F
SAFFORD        SUNNY     99  50  19 W5        29.94F
$$

AZZ020-021-025-026-031-252300-
SOUTHWEST ARIZONA

CITY           SKY/WX    TMP DP  RH WIND       PRES   REMARKS
YUMA           MOSUNNY  106  59  21 S6        29.77F HX 106
$$

CAZ031-033-041-043-047-048-061-252300-
SOUTHERN CALIFORNIA

CITY           SKY/WX    TMP DP  RH WIND       PRES   REMARKS
DOWNTOWN L.A.  SUNNY     88  64  44 VRB5      29.88F
L.A. AIRPORT   MOSUNNY   80  65  59 W13       29.90F
SAN DIEGO      CLOUDY    74  65  73 VRB7      29.92F
BURBANK        SUNNY     97  45  16 CALM      29.89F
ONTARIO        PTSUNNY  100  44  14 SW10      29.89F
RIVERSIDE      SUNNY    103  46  14 W8        29.88F
PALM SPRINGS   PTSUNNY  107  55  18 SE8       29.79F HX 106
EL CENTRO NAS  PTSUNNY  105  62  24 CALM      29.76F HX 107
IMPERIAL       SUNNY    107  68  28 CALM      29.74F HX 114
BLYTHE         SUNNY    110  56  17 VRB6      29.76F HX 109
$$

NVZ020-UTZ003-252300-
SOUTHERN NEVADA-UTAH

CITY           SKY/WX    TMP DP  RH WIND       PRES   REMARKS
LAS VEGAS      MOSUNNY  108  33   7 S10       29.82F HX 101
SALT LAKE CITY MOSUNNY  101  37  11 NW15      30.01F
$$

NMZ009-TXZ055-252300-
NEW MEXICO-WEST TEXAS

CITY           SKY/WX    TMP DP  RH WIND       PRES   REMARKS
ALBUQUERQUE    CLOUDY    93  44  18 W10       30.13F
EL PASO        MOSUNNY   99  46  16 E9G18     29.99F
$$


........................KEY........................
SKY/WX - SKY CONDITION/WEATHER
TMP    - TEMPERATURE IN FAHRENHEIT
DP     - DEW POINT IN FAHRENHEIT
RH     - RELATIVE HUMIDITY IN PERCENT
WIND   - DIRECTION AND SPEED IN MILES PER HOUR (MPH)
VRB    - VARIABLE WIND DIRECTION
PRES   - MEAN SEA LEVEL PRESSURE IN INCHES OF MERCURY
         F - FALLING PRESSURE   R - RISING PRESSURE
         S - STEADY PRESSURE
VSB    - VISIBILITY IN MILES
HX     - HEAT INDEX IN FAHRENHEIT
WCI    - WIND CHILL INDEX IN FAHRENHEIT
TC     - TEMPERATURE IN CELSIUS WHICH IS ALSO KNOWN AS
         TEMPERATURE IN CENTIGRADE
AFB    - AIR FORCE BASE
         LUKE AFB IS LUKE AIR FORCE BASE
         DAVIS-MONTHAN IS DAVIS-MONTHAN AIR FORCE BASE
NAS    - NAVAL AIR STATION
         EL CENTRO NAS IS EL CENTRO NAVAL AIR STATION
N/A    - NOT AVAILABLE





USA.gov is the U.S. government's official web portal to all federal, state and local government web resources and services.